Regional Weather Roundup
Issued by NWS

Home | Current Version | Previous Version | Text Only | Print | Product List | Glossary On
Versions: 1 2 3 4 5 6 7 8 9 10 11 12 13 14 15 16 17 18 19 20 21 22 23 24 25 26 27 28 29 30 31 32 33 34 35 36 37 38 39 40 41 42 43 44 45 46 47 48 49 50
000
ASUS46 KPQR 271710
RWROR

OREGON REGIONAL WEATHER ROUNDUP
NATIONAL WEATHER SERVICE PORTLAND OR
1000 AM PDT WED JUL 27 2016

NOTE: "FAIR" INDICATES FEW OR NO CLOUDS BELOW 12,000 FEET WITH
NO SIGNIFICANT WEATHER AND/OR OBSTRUCTIONS TO VISIBILITY.

ORZ001>013-271800-
NORTHWEST OREGON


CITY           SKY/WX    TMP DP  RH WIND       PRES   REMARKS
ASTORIA        CLOUDY    62  57  83 NW10      30.16R
NEWPORT        CLOUDY    59  55  88 N14G20    30.19S
PORTLAND       CLOUDY    64  56  75 N5        30.12S
VANCOUVER WA   CLOUDY    63  56  78 NW3       30.12S
SCAPPOOSE      MOSUNNY   68  56  65 N8        30.11S
HILLSBORO      MOSUNNY   67  57  70 SE6       30.11S
AURORA         PTSUNNY   64  55  72 NE6       30.13S
MCMINNVILLE    SUNNY     69  55  60 VRB5      30.12S
SALEM          SUNNY     69  55  60 N7        30.10F
CORVALLIS        N/A     72  54  53 N6        30.12S
EUGENE         MOSUNNY   73  55  53 N10       30.11S
$$

ORZ021-028-271800-
SOUTHWEST OREGON


CITY           SKY/WX    TMP DP  RH WIND       PRES   REMARKS
NORTH BEND     MOSUNNY   63  55  77 N22       30.13S
BROOKINGS      SUNNY     61  54  77 VRB3      29.98R
ROSEBURG       SUNNY     73  55  53 NE7       30.08S
SEXTON SUMMIT  SUNNY     64  51  62 N8        30.15R
MEDFORD        SUNNY     76  52  43 VRB3      30.04F
$$

ORZ014>016-041-271800-
COLUMBIA GORGE


CITY           SKY/WX    TMP DP  RH WIND       PRES   REMARKS
TROUTDALE      CLOUDY    63  57  81 VRB3      30.11F
HOOD RIVER     SUNNY     73  59  60 CALM      30.06F
THE DALLES     SUNNY     76  57  51 NW9       30.03F
$$

ORZ029>031-041-044-049-050-061>064-502-503-505>511-271800-
EASTERN OREGON


CITY           SKY/WX    TMP DP  RH WIND       PRES   REMARKS
REDMOND        SUNNY     75  41  29 VRB3      30.12F
BEND           SUNNY     73  45  35 CALM      30.13F
PRINEVILLE     SUNNY     73  45  35 N5        30.13F
KLAMATH FALLS  SUNNY     77  52  41 CALM      30.14S
LAKEVIEW       SUNNY    N/A N/A N/A W3        30.19F
HERMISTON      SUNNY     81  56  42 W6        30.03F
PENDLETON      SUNNY     80  52  37 NW9       30.06F
JOHN DAY       SUNNY     78  45  31 CALM      30.14F
MEACHAM        SUNNY     75  48  38 VRB3      30.16S
LA GRANDE      SUNNY     75  46  35 NE5       30.10F
BAKER CITY     SUNNY     77  49  37 W3        30.13S
BURNS          SUNNY     81  44  27 VRB5      30.15F
ROME             N/A     86  43  22 N8        30.11F
ONTARIO        SUNNY     84  54  35 CALM      30.04F
$$



USA.gov is the U.S. government's official web portal to all federal, state and local government web resources and services.